Weather History for KBYS - June, 2014

Change the Weather History Date:

Friday, June 6, 2014

  Actual Average (KDAG) Record (KDAG)
Temperature  
Mean Temperature 84 °F -  
Max Temperature 96 °F 94 °F 110 °F (1981)
Min Temperature 72 °F 65 °F 49 °F (1954)
Cooling Degree Days 19    
Growing Degree Days 34 (Base 50)    
Moisture  
Dew Point 30 °F    
Average Humidity 16    
Maximum Humidity 24    
Minimum Humidity 7    
Precipitation  
Precipitation 0.00 in - - ()
Sea Level Pressure  
Sea Level Pressure 29.59 in    
Wind  
Wind Speed 14 mph (WSW)    
Max Wind Speed 28 mph    
Max Gust Speed 36 mph    
Visibility 10 miles    
Events      
Averages and records for this station are not official NWS values.
T = Trace of Precipitation, MM = Missing Value Source: NWS Daily Summary

Daily Weather History Graph

Daily Weather History Graph

Search for Another Location

Airport or City:

Trip Planner

Search our weather history database for the weather conditions in past years. The results will help you decide how hot, cold, wet, or windy it might be!

Date:

Astronomy

Jun. 06, 2014 Rise Set
Actual Time 5:31 AM PDT 7:58 PM PDT
Civil Twilight 5:02 AM PDT 8:28 PM PDT
Nautical Twilight 4:25 AM PDT 9:05 PM PDT
Astronomical Twilight 3:45 AM PDT 9:45 PM PDT
Moon 1:35 PM PDT (6/6) 1:11 AM PDT (6/6)
Length of Visible Light 15h 26m
Length of Day
14h 27m
First Quarter, 59% of the Moon is Illuminated
Jun 6
First Quarter
Jun 12
Full
Jun 19
Last Quarter
Jun 27
New
Jul 5
First Quarter

Hourly Weather History & Observations

Time (PDT) Temp. Dew Point Humidity Pressure Visibility Wind Dir Wind Speed Gust Speed Precip Events Conditions
12:55 AM 79.5 °F 33.4 °F 19% 29.59 in 10.0 mi WSW 12.7 mph 17.3 mph N/A   Clear
1:55 AM 77.0 °F 33.4 °F 20% 29.59 in 10.0 mi WNW 19.6 mph 27.6 mph N/A   Clear
2:55 AM 74.7 °F 33.8 °F 22% 29.59 in 10.0 mi WNW 12.7 mph - N/A   Clear
3:55 AM 74.1 °F 33.8 °F 23% 29.59 in 10.0 mi WNW 16.1 mph - N/A   Clear
4:55 AM 72.9 °F 33.6 °F 24% 29.59 in 10.0 mi West 16.1 mph - N/A   Clear
5:55 AM 72.1 °F 32.9 °F 24% 29.60 in 10.0 mi West 11.5 mph - N/A   Clear
6:55 AM 73.9 °F 32.7 °F 22% 29.61 in 10.0 mi WNW 8.1 mph - N/A   Clear
7:55 AM 79.9 °F 30.9 °F 17% 29.61 in 10.0 mi Calm Calm - N/A   Clear
8:55 AM 82.9 °F 30.4 °F 15% 29.62 in 10.0 mi Variable 2.3 mph - N/A   Clear
9:55 AM 85.6 °F 30.0 °F 13% 29.63 in 10.0 mi WNW 5.8 mph - N/A   Clear
10:55 AM 86.5 °F 28.2 °F 12% 29.63 in 10.0 mi SW 13.8 mph 24.2 mph N/A   Clear
11:55 AM 91.2 °F 23.9 °F 9% 29.61 in 10.0 mi SSE 11.5 mph 15.0 mph N/A   Clear
12:55 PM 90.5 °F 25.0 °F 9% 29.61 in 10.0 mi SSW 8.1 mph 15.0 mph N/A   Clear
1:55 PM 93.4 °F 24.8 °F 8% 29.59 in 10.0 mi SW 12.7 mph 17.3 mph N/A   Clear
2:55 PM 94.6 °F 26.1 °F 9% 29.57 in 10.0 mi WSW 10.4 mph 20.7 mph N/A   Clear
3:55 PM 95.2 °F 23.7 °F 8% 29.55 in 10.0 mi SSW 13.8 mph 21.9 mph N/A   Clear
4:55 PM 96.1 °F 22.6 °F 7% 29.54 in 10.0 mi WSW 18.4 mph 25.3 mph N/A   Clear
5:55 PM 94.1 °F 25.0 °F 8% 29.54 in 10.0 mi WSW 24.2 mph 31.1 mph N/A   Clear
6:55 PM 91.9 °F 28.4 °F 10% 29.55 in 10.0 mi WSW 21.9 mph 33.4 mph N/A   Clear
7:55 PM 87.1 °F 32.0 °F 14% 29.56 in 10.0 mi WSW 27.6 mph 35.7 mph N/A   Clear
8:55 PM 82.9 °F 37.2 °F 20% 29.58 in 10.0 mi WSW 26.5 mph 33.4 mph N/A   Clear
9:55 PM 79.3 °F 38.3 °F 23% 29.60 in 10.0 mi WSW 19.6 mph 25.3 mph N/A   Clear
10:55 PM 77.4 °F 35.8 °F 22% 29.60 in 10.0 mi WSW 15.0 mph 20.7 mph N/A   Clear
11:55 PM 75.6 °F 35.6 °F 23% 29.60 in 10.0 mi SSW 15.0 mph - N/A   Clear